This is the latest recevied weather packets stored in our database for station/object KD0JCP-10. If no packets are shown the sender has not sent any weather packets the latest 1 day(s).
| Time | Temp. | Humidity | Pressure | Rain* | Wind** | Luminosity | Snow |
|---|---|---|---|---|---|---|---|
| 1778063771 | 4.44° C | 64% | 1019.3 hPa | 0 mm | - | - | - |
| 1778063471 | 4.44° C | 64% | 1019.2 hPa | 0 mm | - | - | - |
| 1778063171 | 4.44° C | 63% | 1019.2 hPa | 0 mm | - | - | - |
| 1778062871 | 4.44° C | 63% | 1019.3 hPa | 0 mm | - | - | - |
| 1778062571 | 4.44° C | 63% | 1019.2 hPa | 0 mm | - | - | - |
| 1778062271 | 4.44° C | 63% | 1019.1 hPa | 0 mm | - | - | - |
| 1778061971 | 4.44° C | 64% | 1019.1 hPa | 0 mm | - | - | - |
| 1778061671 | 4.44° C | 63% | 1019.1 hPa | 0 mm | - | - | - |
| 1778061371 | 4.44° C | 63% | 1019.1 hPa | 0 mm | - | - | - |
| 1778061071 | 4.44° C | 64% | 1019.1 hPa | 0 mm | - | - | - |
| 1778060771 | 4.44° C | 63% | 1019.1 hPa | 0 mm | - | - | - |
| 1778060471 | 4.44° C | 64% | 1019.1 hPa | 0 mm | - | - | - |
| 1778060171 | 4.44° C | 63% | 1019 hPa | 0 mm | - | - | - |
| 1778059871 | 4.44° C | 64% | 1019.1 hPa | 0 mm | - | - | - |
| 1778059571 | 4.44° C | 63% | 1018.9 hPa | 0 mm | - | - | - |
| 1778059271 | 4.44° C | 62% | 1018.8 hPa | 0 mm | - | - | - |
| 1778058971 | 5° C | 61% | 1018.7 hPa | 0 mm | - | - | - |
| 1778058671 | 5° C | 61% | 1018.7 hPa | 0 mm | - | - | - |
| 1778058371 | 5° C | 60% | 1018.7 hPa | 0 mm | - | - | - |
| 1778058071 | 5° C | 61% | 1018.7 hPa | 0 mm | - | - | - |
| 1778057771 | 5° C | 58% | 1018.6 hPa | 0 mm | - | - | - |
| 1778057471 | 5° C | 60% | 1018.5 hPa | 0 mm | - | - | - |
| 1778057171 | 5° C | 58% | 1018.5 hPa | 0 mm | - | - | - |
| 1778056871 | 5.56° C | 59% | 1018.7 hPa | 0 mm | - | - | - |
| 1778056571 | 5.56° C | 60% | 1018.5 hPa | 0 mm | - | - | - |
* Rain latest hour (hover to see other rain measurements)
** Current wind speed in m/s (hover to see current wind gust speed)